Weather History for Coffeyville, KS

Change the Weather History Date:

Sunday, September 15, 2013

  Actual Average Record
Temperature  
Mean Temperature 78 °F -  
Max Temperature 91 °F 81 °F 91 °F (2013)
Min Temperature 66 °F 58 °F 48 °F (2007)
Cooling Degree Days 14    
Growing Degree Days 28 (Base 50)    
Moisture  
Dew Point 58 °F    
Average Humidity 53    
Maximum Humidity 71    
Minimum Humidity 36    
Precipitation  
Precipitation 0.00 in - - ()
Sea Level Pressure  
Sea Level Pressure 29.98 in    
Wind  
Wind Speed 7 mph (South)    
Max Wind Speed 16 mph    
Max Gust Speed 23 mph    
Visibility 10 miles    
Events      
Averages and records for this station are not official NWS values.
T = Trace of Precipitation, MM = Missing Value Source: NWS Daily Summary

Daily Weather History Graph

Daily Weather History Graph

Search for Another Location

Airport:

Trip Planner

Search our weather history database for the weather conditions in past years. The results will help you decide how hot, cold, wet, or windy it might be!

Date:

Astronomy

Sep. 15, 2013 Rise Set
Actual Time 7:04 AM CDT 7:29 PM CDT
Civil Twilight 6:38 AM CDT 7:55 PM CDT
Nautical Twilight 6:07 AM CDT 8:26 PM CDT
Astronomical Twilight 5:36 AM CDT 8:57 PM CDT
Moon 4:53 PM CDT (9/15) 2:48 AM CDT (9/15)
Length of Visible Light 13h 16m
Length of Day
12h 24m
Waxing Gibbous, 82% of the Moon is Illuminated
Sep 15
Waxing Gibbous
Sep 19
Full
Sep 26
Last Quarter
Oct 4
New
Oct 11
First Quarter

Hourly Weather History & Observations

Time (CDT) Temp. Heat Index Dew Point Humidity Pressure Visibility Wind Dir Wind Speed Gust Speed Precip Events Conditions
12:52 AM 69.1 °F - 55.0 °F 61% 29.96 in 10.0 mi South 5.8 mph - N/A   Clear
1:52 AM 68.0 °F - 55.9 °F 65% 29.96 in 10.0 mi SSE 5.8 mph - N/A   Clear
2:52 AM 66.9 °F - 55.9 °F 68% 29.96 in 10.0 mi SSE 4.6 mph - N/A   Clear
3:52 AM 68.0 °F - 54.0 °F 61% 29.96 in 10.0 mi SSE 4.6 mph - N/A   Clear
4:52 AM 68.0 °F - 52.0 °F 56% 29.96 in 10.0 mi SSE 5.8 mph - N/A   Clear
5:52 AM 68.0 °F - 52.0 °F 56% 29.96 in 10.0 mi SSE 5.8 mph - N/A   Clear
6:52 AM 66.9 °F - 52.0 °F 59% 29.97 in 10.0 mi SSE 8.1 mph - N/A   Clear
7:52 AM 66.9 °F - 53.1 °F 61% 30.00 in 10.0 mi South 5.8 mph - N/A   Clear
8:52 AM 71.1 °F - 54.0 °F 55% 30.00 in 10.0 mi South 10.4 mph - N/A   Clear
9:52 AM 75.0 °F - 54.0 °F 48% 30.01 in 10.0 mi SSW 12.7 mph 17.3 mph N/A   Clear
10:52 AM 79.0 °F - 53.1 °F 40% 30.01 in 10.0 mi South 16.1 mph 23.0 mph N/A   Clear
11:52 AM 82.9 °F 82.1 °F 55.9 °F 39% 30.00 in 10.0 mi South 15.0 mph 23.0 mph N/A   Clear
12:52 PM 86.0 °F 84.9 °F 57.0 °F 37% 29.98 in 10.0 mi South 12.7 mph - N/A   Clear
1:52 PM 89.1 °F 88.2 °F 59.0 °F 36% 29.97 in 10.0 mi SSW 12.7 mph - N/A   Clear
2:52 PM 91.0 °F 90.9 °F 61.0 °F 36% 29.96 in 10.0 mi SSW 11.5 mph - N/A   Clear
3:52 PM 89.1 °F 89.0 °F 61.0 °F 39% 29.96 in 10.0 mi SSW 9.2 mph - N/A   Partly Cloudy
4:52 PM 88.0 °F 87.9 °F 61.0 °F 40% 29.95 in 10.0 mi South 10.4 mph - N/A   Partly Cloudy
5:52 PM 86.0 °F 86.3 °F 62.1 °F 44% 29.96 in 10.0 mi South 6.9 mph - N/A   Partly Cloudy
6:52 PM 84.9 °F 86.1 °F 64.0 °F 49% 29.96 in 10.0 mi SE 4.6 mph - N/A   Clear
7:52 PM 81.0 °F 82.7 °F 64.9 °F 58% 29.97 in 10.0 mi Calm Calm - N/A   Clear
8:52 PM 77.0 °F - 64.9 °F 66% 29.99 in 10.0 mi East 3.5 mph - N/A   Clear
9:52 PM 78.1 °F - 64.9 °F 64% 30.02 in 10.0 mi NNE 3.5 mph - N/A   Clear
10:52 PM 78.1 °F - 64.9 °F 64% 30.03 in 10.0 mi NNE 6.9 mph - N/A   Clear
11:52 PM 75.9 °F - 66.0 °F 71% 30.05 in 10.0 mi NNW 6.9 mph - N/A   Partly Cloudy